Time,TemperatureF,DewpointF,PressureIn,WindDirection,WindDirectionDegrees,WindSpeedMPH,WindSpeedGustMPH,Humidity,HourlyPrecipIn,Conditions,Clouds,dailyrainin,SoftwareType,DateUTC
2013-06-06 00:01:00,54.3,53.2,30.18,WNW,298,0.0,0.0,96,0.00,,,0.00,meteohub,2013-06-06 04:01:00,
2013-06-06 00:02:00,54.3,53.2,30.19,WNW,298,0.0,0.0,96,0.00,,,0.00,meteohub,2013-06-06 04:02:00,
2013-06-06 00:07:00,54.1,53.1,30.19,WNW,298,0.0,0.0,96,0.00,,,0.00,meteohub,2013-06-06 04:07:00,
2013-06-06 00:12:00,54.1,53.1,30.19,NW,315,0.0,0.0,96,0.00,,,0.00,meteohub,2013-06-06 04:12:00,
2013-06-06 00:17:00,54.1,53.2,30.19,NW,313,0.0,1.0,97,0.00,,,0.00,meteohub,2013-06-06 04:17:00,
2013-06-06 00:22:00,54.1,53.2,30.19,NW,313,0.0,1.0,97,0.00,,,0.00,meteohub,2013-06-06 04:22:00,
2013-06-06 00:27:00,54.1,53.1,30.19,NW,313,0.0,1.0,96,0.00,,,0.00,meteohub,2013-06-06 04:27:00,
2013-06-06 00:32:00,54.0,53.1,30.19,WNW,299,0.0,0.0,97,0.00,,,0.00,meteohub,2013-06-06 04:32:00,
2013-06-06 00:37:00,54.1,53.2,30.19,WNW,299,0.0,0.0,97,0.00,,,0.00,meteohub,2013-06-06 04:37:00,
2013-06-06 00:42:00,54.0,53.1,30.19,WNW,299,0.0,0.0,97,0.00,,,0.00,meteohub,2013-06-06 04:42:00,
2013-06-06 00:47:00,54.0,53.1,30.19,WNW,299,0.0,0.0,97,0.00,,,0.00,meteohub,2013-06-06 04:47:00,
2013-06-06 00:52:00,53.8,52.7,30.19,NNW,347,0.0,0.0,96,0.00,,,0.00,meteohub,2013-06-06 04:52:00,
2013-06-06 00:57:00,53.4,52.3,30.19,NNW,347,0.0,0.0,96,0.00,,,0.00,meteohub,2013-06-06 04:57:00,
2013-06-06 01:02:00,53.4,52.3,30.19,NNW,347,0.0,0.0,96,0.00,,,0.00,meteohub,2013-06-06 05:02:00,
2013-06-06 01:07:00,53.4,52.5,30.19,NNW,347,0.0,0.0,97,0.00,,,0.00,meteohub,2013-06-06 05:07:00,
2013-06-06 01:12:00,53.2,52.3,30.18,NNW,347,0.0,0.0,97,0.00,,,0.00,meteohub,2013-06-06 05:12:00,
2013-06-06 01:17:00,53.1,52.0,30.18,NNW,347,0.0,0.0,96,0.00,,,0.00,meteohub,2013-06-06 05:17:00,
2013-06-06 01:22:00,52.9,52.0,30.18,NNW,346,0.0,0.0,97,0.00,,,0.00,meteohub,2013-06-06 05:22:00,
2013-06-06 01:27:00,53.1,52.2,30.19,NNW,333,0.0,0.0,97,0.00,,,0.00,meteohub,2013-06-06 05:27:00,
2013-06-06 01:32:00,52.9,52.0,30.19,NW,307,0.0,1.0,97,0.00,,,0.00,meteohub,2013-06-06 05:32:00,
2013-06-06 01:37:00,52.7,51.8,30.18,East,98,0.0,1.0,97,0.00,,,0.00,meteohub,2013-06-06 05:37:00,
2013-06-06 01:42:00,52.5,51.6,30.18,East,96,0.0,1.0,97,0.00,,,0.00,meteohub,2013-06-06 05:42:00,
2013-06-06 01:47:00,52.5,51.6,30.19,NE,49,0.0,0.0,97,0.00,,,0.00,meteohub,2013-06-06 05:47:00,
2013-06-06 01:52:00,52.5,51.6,30.19,WNW,291,0.0,0.0,97,0.00,,,0.00,meteohub,2013-06-06 05:52:00,
2013-06-06 01:57:00,52.5,51.6,30.19,WNW,291,0.0,1.0,97,0.00,,,0.00,meteohub,2013-06-06 05:57:00,
2013-06-06 02:02:00,52.3,51.4,30.19,NW,313,0.0,1.0,97,0.00,,,0.00,meteohub,2013-06-06 06:02:00,
2013-06-06 02:07:00,52.3,51.4,30.19,NW,313,0.0,0.0,97,0.00,,,0.00,meteohub,2013-06-06 06:07:00,
2013-06-06 02:12:00,52.2,51.3,30.19,NW,312,0.0,0.0,97,0.00,,,0.00,meteohub,2013-06-06 06:12:00,
2013-06-06 02:17:00,52.0,51.1,30.19,NW,312,0.0,0.0,97,0.00,,,0.00,meteohub,2013-06-06 06:17:00,
2013-06-06 02:22:00,51.8,50.9,30.19,NNE,27,0.0,0.0,97,0.00,,,0.00,meteohub,2013-06-06 06:22:00,
2013-06-06 02:27:00,51.6,50.7,30.19,NNE,27,0.0,0.0,97,0.00,,,0.00,meteohub,2013-06-06 06:27:00,
2013-06-06 02:32:00,51.6,50.7,30.19,NW,326,1.0,2.0,97,0.00,,,0.00,meteohub,2013-06-06 06:32:00,
2013-06-06 02:37:00,51.6,50.7,30.19,NW,325,0.0,2.0,97,0.00,,,0.00,meteohub,2013-06-06 06:37:00,
2013-06-06 02:42:00,51.6,50.7,30.19,NW,326,0.0,2.0,97,0.00,,,0.00,meteohub,2013-06-06 06:42:00,
2013-06-06 02:47:00,51.4,50.5,30.18,NW,326,0.0,2.0,97,0.00,,,0.00,meteohub,2013-06-06 06:47:00,
2013-06-06 02:52:00,51.3,50.4,30.18,NW,326,0.0,0.0,97,0.00,,,0.00,meteohub,2013-06-06 06:52:00,
2013-06-06 02:57:00,51.3,50.4,30.18,NW,326,0.0,0.0,97,0.00,,,0.00,meteohub,2013-06-06 06:57:00,
2013-06-06 03:02:00,51.1,50.2,30.18,NW,326,0.0,0.0,97,0.00,,,0.00,meteohub,2013-06-06 07:02:00,
2013-06-06 03:07:00,51.1,50.5,30.18,NW,325,0.0,0.0,98,0.00,,,0.00,meteohub,2013-06-06 07:07:00,
2013-06-06 03:12:00,51.1,50.5,30.18,NW,304,0.0,1.0,98,0.00,,,0.00,meteohub,2013-06-06 07:12:00,
2013-06-06 03:17:00,51.1,50.2,30.19,NNW,344,0.0,1.0,97,0.00,,,0.00,meteohub,2013-06-06 07:17:00,
2013-06-06 03:22:00,51.1,50.2,30.19,NNW,345,0.0,1.0,97,0.00,,,0.00,meteohub,2013-06-06 07:22:00,
2013-06-06 03:27:00,51.1,50.2,30.19,NNW,345,0.0,1.0,97,0.00,,,0.00,meteohub,2013-06-06 07:27:00,
2013-06-06 03:32:00,50.7,49.8,30.19,NNW,345,0.0,1.0,97,0.00,,,0.00,meteohub,2013-06-06 07:32:00,
2013-06-06 03:37:00,50.7,49.8,30.19,NNW,332,2.0,2.0,97,0.00,,,0.00,meteohub,2013-06-06 07:37:00,
2013-06-06 03:42:00,50.5,49.6,30.19,NNE,12,0.0,2.0,97,0.00,,,0.00,meteohub,2013-06-06 07:42:00,
2013-06-06 03:47:00,50.5,49.6,30.19,NNW,348,0.0,2.0,97,0.00,,,0.00,meteohub,2013-06-06 07:47:00,
2013-06-06 03:53:00,50.5,49.6,30.19,NNW,348,0.0,2.0,97,0.00,,,0.00,meteohub,2013-06-06 07:53:00,
2013-06-06 03:58:00,50.4,49.8,30.19,NNW,347,0.0,1.0,98,0.00,,,0.00,meteohub,2013-06-06 07:58:00,
2013-06-06 04:03:00,50.5,50.0,30.19,NNW,340,0.0,0.0,98,0.00,,,0.00,meteohub,2013-06-06 08:03:00,
2013-06-06 04:08:00,50.4,49.8,30.18,NNW,340,0.0,1.0,98,0.00,,,0.00,meteohub,2013-06-06 08:08:00,
2013-06-06 04:13:00,50.4,49.8,30.19,NNW,340,0.0,1.0,98,0.00,,,0.00,meteohub,2013-06-06 08:13:00,
2013-06-06 04:18:00,50.4,49.8,30.19,NNW,330,0.0,1.0,98,0.00,,,0.00,meteohub,2013-06-06 08:18:00,
2013-06-06 04:23:00,50.4,49.8,30.19,NNW,330,0.0,1.0,98,0.00,,,0.00,meteohub,2013-06-06 08:23:00,
2013-06-06 04:28:00,50.4,49.8,30.19,NNW,330,0.0,1.0,98,0.00,,,0.00,meteohub,2013-06-06 08:28:00,
2013-06-06 04:33:00,50.2,49.6,30.19,NNW,330,0.0,1.0,98,0.00,,,0.00,meteohub,2013-06-06 08:33:00,
2013-06-06 04:38:00,50.2,49.6,30.19,NNW,330,0.0,0.0,98,0.00,,,0.00,meteohub,2013-06-06 08:38:00,
2013-06-06 04:43:00,50.2,49.6,30.19,NNW,328,0.0,1.0,98,0.00,,,0.00,meteohub,2013-06-06 08:43:00,
2013-06-06 04:48:00,50.0,49.5,30.19,NNW,329,0.0,1.0,98,0.00,,,0.00,meteohub,2013-06-06 08:48:00,
2013-06-06 04:53:00,50.0,49.5,30.19,NNW,328,0.0,1.0,98,0.00,,,0.00,meteohub,2013-06-06 08:53:00,
2013-06-06 04:58:00,50.2,49.6,30.19,NNW,328,0.0,0.0,98,0.00,,,0.00,meteohub,2013-06-06 08:58:00,
2013-06-06 05:03:00,50.2,49.6,30.19,NNW,328,0.0,0.0,98,0.00,,,0.00,meteohub,2013-06-06 09:03:00,
2013-06-06 05:08:00,50.0,49.5,30.19,NNW,328,0.0,1.0,98,0.00,,,0.00,meteohub,2013-06-06 09:08:00,
2013-06-06 05:13:00,49.8,49.3,30.19,NNW,328,0.0,1.0,98,0.00,,,0.00,meteohub,2013-06-06 09:13:00,
2013-06-06 05:18:00,50.0,49.5,30.19,NNW,330,0.0,1.0,98,0.00,,,0.00,meteohub,2013-06-06 09:18:00,
2013-06-06 05:23:00,50.0,49.5,30.19,NNW,345,0.0,1.0,98,0.00,,,0.00,meteohub,2013-06-06 09:23:00,
2013-06-06 05:28:00,49.8,49.3,30.19,NW,318,0.0,1.0,98,0.00,,,0.00,meteohub,2013-06-06 09:28:00,
2013-06-06 05:33:00,49.8,49.3,30.19,NW,318,0.0,1.0,98,0.00,,,0.00,meteohub,2013-06-06 09:33:00,
2013-06-06 05:38:00,49.8,49.3,30.19,NNW,333,0.0,1.0,98,0.00,,,0.00,meteohub,2013-06-06 09:38:00,
2013-06-06 05:43:00,50.0,49.5,30.19,NNW,330,0.0,1.0,98,0.00,,,0.00,meteohub,2013-06-06 09:43:00,
2013-06-06 05:48:00,50.0,49.5,30.19,NNW,330,0.0,1.0,98,0.00,,,0.00,meteohub,2013-06-06 09:48:00,
2013-06-06 05:53:00,50.2,49.6,30.19,NNW,330,0.0,1.0,98,0.00,,,0.00,meteohub,2013-06-06 09:53:00,
2013-06-06 05:58:00,50.4,49.8,30.20,NNW,330,0.0,0.0,98,0.00,,,0.00,meteohub,2013-06-06 09:58:00,
2013-06-06 06:03:00,50.4,49.8,30.20,NNW,335,0.0,0.0,98,0.00,,,0.00,meteohub,2013-06-06 10:03:00,
2013-06-06 06:08:00,50.5,50.0,30.20,NNW,337,0.0,0.0,98,0.00,,,0.00,meteohub,2013-06-06 10:08:00,
2013-06-06 06:13:00,50.7,49.8,30.20,NNW,330,0.0,0.0,97,0.00,,,0.00,meteohub,2013-06-06 10:13:00,
2013-06-06 06:18:00,51.3,50.7,30.19,NNW,330,0.0,1.0,98,0.00,,,0.00,meteohub,2013-06-06 10:18:00,
2013-06-06 06:23:00,52.0,51.4,30.19,NNW,330,0.0,1.0,98,0.00,,,0.00,meteohub,2013-06-06 10:23:00,
2013-06-06 06:28:00,52.3,51.4,30.20,NW,324,0.0,0.0,97,0.00,,,0.00,meteohub,2013-06-06 10:28:00,
2013-06-06 06:33:00,52.7,51.8,30.20,NW,308,0.0,0.0,97,0.00,,,0.00,meteohub,2013-06-06 10:33:00,
2013-06-06 06:38:00,53.2,52.3,30.20,NW,321,0.0,1.0,97,0.00,,,0.00,meteohub,2013-06-06 10:38:00,
2013-06-06 06:43:00,54.0,53.1,30.19,East,89,0.0,2.0,97,0.00,,,0.00,meteohub,2013-06-06 10:43:00,
2013-06-06 06:48:00,54.7,53.8,30.20,East,89,0.0,2.0,97,0.00,,,0.00,meteohub,2013-06-06 10:48:00,
2013-06-06 06:53:00,55.0,54.0,30.20,NNW,336,0.0,2.0,96,0.00,,,0.00,meteohub,2013-06-06 10:53:00,
2013-06-06 06:58:00,55.6,54.1,30.20,NNW,335,0.0,1.0,95,0.00,,,0.00,meteohub,2013-06-06 10:58:00,
2013-06-06 07:03:00,55.9,54.5,30.19,NNE,27,0.0,1.0,95,0.00,,,0.00,meteohub,2013-06-06 11:03:00,
2013-06-06 07:08:00,56.7,55.0,30.19,NW,322,0.0,1.0,94,0.00,,,0.00,meteohub,2013-06-06 11:08:00,
2013-06-06 07:13:00,57.4,55.6,30.20,NW,322,0.0,1.0,94,0.00,,,0.00,meteohub,2013-06-06 11:13:00,
2013-06-06 07:18:00,58.6,56.8,30.20,NW,322,0.0,1.0,94,0.00,,,0.00,meteohub,2013-06-06 11:18:00,
2013-06-06 07:23:00,59.7,57.4,30.20,NW,321,0.0,0.0,92,0.00,,,0.00,meteohub,2013-06-06 11:23:00,
2013-06-06 07:28:00,60.6,57.7,30.20,NW,321,0.0,0.0,90,0.00,,,0.00,meteohub,2013-06-06 11:28:00,
2013-06-06 07:33:00,61.0,57.7,30.20,SW,232,0.0,0.0,89,0.00,,,0.00,meteohub,2013-06-06 11:33:00,
2013-06-06 07:38:00,61.7,57.7,30.20,East,84,0.0,1.0,87,0.00,,,0.00,meteohub,2013-06-06 11:38:00,
2013-06-06 07:44:00,62.1,57.7,30.21,SW,214,0.0,1.0,86,0.00,,,0.00,meteohub,2013-06-06 11:44:00,
2013-06-06 07:49:00,61.9,57.4,30.21,SSW,212,0.0,1.0,85,0.00,,,0.00,meteohub,2013-06-06 11:49:00,
2013-06-06 07:54:00,61.5,57.4,30.21,SSW,207,0.0,3.0,86,0.00,,,0.00,meteohub,2013-06-06 11:54:00,
2013-06-06 07:59:00,61.3,57.4,30.21,SSW,193,0.0,3.0,87,0.00,,,0.00,meteohub,2013-06-06 11:59:00,
2013-06-06 08:04:00,61.5,57.6,30.21,South,174,0.0,3.0,87,0.00,,,0.00,meteohub,2013-06-06 12:04:00,
2013-06-06 08:09:00,62.1,58.1,30.21,SW,214,0.0,3.0,87,0.00,,,0.00,meteohub,2013-06-06 12:09:00,
2013-06-06 08:14:00,62.1,57.7,30.21,SSW,198,0.0,3.0,86,0.00,,,0.00,meteohub,2013-06-06 12:14:00,
2013-06-06 08:19:00,62.1,58.1,30.21,South,173,0.0,1.0,87,0.00,,,0.00,meteohub,2013-06-06 12:19:00,
2013-06-06 08:24:00,62.6,58.6,30.21,SW,231,0.0,1.0,87,0.00,,,0.00,meteohub,2013-06-06 12:24:00,
2013-06-06 08:29:00,62.8,58.5,30.21,South,171,3.0,3.0,86,0.00,,,0.00,meteohub,2013-06-06 12:29:00,
2013-06-06 08:34:00,62.4,58.5,30.21,SSW,208,4.0,5.0,87,0.00,,,0.00,meteohub,2013-06-06 12:34:00,
2013-06-06 08:39:00,62.2,58.3,30.21,SSW,198,6.0,6.0,87,0.00,,,0.00,meteohub,2013-06-06 12:39:00,
2013-06-06 08:44:00,62.8,59.2,30.21,SSW,204,3.0,6.0,88,0.00,,,0.00,meteohub,2013-06-06 12:44:00,
2013-06-06 08:49:00,63.1,59.2,30.20,South,177,4.0,6.0,87,0.00,,,0.00,meteohub,2013-06-06 12:49:00,
2013-06-06 08:54:00,63.3,59.0,30.20,SW,231,1.0,6.0,86,0.00,,,0.00,meteohub,2013-06-06 12:54:00,
2013-06-06 08:59:00,63.7,59.4,30.20,South,191,2.0,6.0,86,0.00,,,0.00,meteohub,2013-06-06 12:59:00,
2013-06-06 09:04:00,64.0,59.4,30.20,South,191,4.0,6.0,85,0.00,,,0.00,meteohub,2013-06-06 13:04:00,
2013-06-06 09:09:00,64.2,59.5,30.20,SW,224,5.0,5.0,85,0.00,,,0.00,meteohub,2013-06-06 13:09:00,
2013-06-06 09:14:00,64.0,59.4,30.19,SSW,195,3.0,4.0,85,0.00,,,0.00,meteohub,2013-06-06 13:14:00,
2013-06-06 09:19:00,64.6,59.9,30.19,South,181,2.0,5.0,85,0.00,,,0.00,meteohub,2013-06-06 13:19:00,
2013-06-06 09:24:00,64.9,60.3,30.19,SSW,204,2.0,5.0,85,0.00,,,0.00,meteohub,2013-06-06 13:24:00,
2013-06-06 09:29:00,65.1,59.9,30.19,SW,220,1.0,4.0,83,0.00,,,0.00,meteohub,2013-06-06 13:29:00,
2013-06-06 09:34:00,65.1,59.9,30.19,SSW,200,2.0,4.0,83,0.00,,,0.00,meteohub,2013-06-06 13:34:00,
2013-06-06 09:39:00,64.9,59.9,30.19,SW,225,3.0,4.0,84,0.00,,,0.00,meteohub,2013-06-06 13:39:00,
2013-06-06 09:44:00,64.9,59.9,30.19,SSW,200,1.0,4.0,84,0.00,,,0.00,meteohub,2013-06-06 13:44:00,
2013-06-06 09:49:00,64.9,59.9,30.19,SW,225,2.0,4.0,84,0.00,,,0.00,meteohub,2013-06-06 13:49:00,
2013-06-06 09:54:00,64.8,60.1,30.19,South,191,1.0,4.0,85,0.00,,,0.00,meteohub,2013-06-06 13:54:00,
2013-06-06 09:59:00,64.8,59.9,30.19,SSW,204,4.0,4.0,84,0.00,,,0.00,meteohub,2013-06-06 13:59:00,
2013-06-06 10:04:00,64.6,59.9,30.19,SSW,203,4.0,6.0,85,0.00,,,0.00,meteohub,2013-06-06 14:04:00,
2013-06-06 10:09:00,64.9,59.9,30.19,SSW,201,3.0,6.0,84,0.00,,,0.00,meteohub,2013-06-06 14:09:00,
2013-06-06 10:14:00,65.7,60.6,30.19,SSW,207,2.0,6.0,84,0.00,,,0.00,meteohub,2013-06-06 14:14:00,
2013-06-06 10:19:00,66.0,59.7,30.19,SE,136,4.0,6.0,80,0.00,,,0.00,meteohub,2013-06-06 14:19:00,
2013-06-06 10:24:00,66.4,60.1,30.19,ESE,118,4.0,7.0,80,0.00,,,0.00,meteohub,2013-06-06 14:24:00,
2013-06-06 10:29:00,66.4,59.7,30.19,SE,131,6.0,7.0,79,0.00,,,0.00,meteohub,2013-06-06 14:29:00,
2013-06-06 10:34:00,66.4,60.4,30.19,SSE,158,2.0,7.0,81,0.00,,,0.00,meteohub,2013-06-06 14:34:00,
2013-06-06 10:39:00,66.7,60.8,30.19,SE,142,4.0,8.0,81,0.00,,,0.00,meteohub,2013-06-06 14:39:00,
2013-06-06 10:44:00,67.3,61.0,30.20,SSW,212,5.0,8.0,80,0.00,,,0.00,meteohub,2013-06-06 14:44:00,
2013-06-06 10:49:00,66.9,60.3,30.20,South,170,7.0,9.0,79,0.00,,,0.00,meteohub,2013-06-06 14:49:00,
2013-06-06 10:54:00,66.9,61.0,30.20,SW,228,8.0,9.0,81,0.00,,,0.00,meteohub,2013-06-06 14:54:00,
2013-06-06 10:59:00,67.3,61.0,30.20,ESE,103,3.0,9.0,80,0.00,,,0.00,meteohub,2013-06-06 14:59:00,
2013-06-06 11:04:00,67.3,60.6,30.20,SE,145,2.0,9.0,79,0.00,,,0.00,meteohub,2013-06-06 15:04:00,
2013-06-06 11:09:00,67.3,60.6,30.20,SSE,160,2.0,9.0,79,0.00,,,0.00,meteohub,2013-06-06 15:09:00,
2013-06-06 11:14:00,67.3,60.6,30.20,SE,142,4.0,7.0,79,0.00,,,0.00,meteohub,2013-06-06 15:14:00,
2013-06-06 11:19:00,67.5,60.4,30.20,SE,132,6.0,9.0,78,0.00,,,0.00,meteohub,2013-06-06 15:19:00,
2013-06-06 11:24:00,66.7,59.7,30.20,ESE,108,8.0,9.0,78,0.00,,,0.00,meteohub,2013-06-06 15:24:00,
2013-06-06 11:29:00,66.0,59.7,30.19,East,96,8.0,11.0,80,0.00,,,0.00,meteohub,2013-06-06 15:29:00,
2013-06-06 11:34:00,65.8,59.9,30.19,ENE,78,9.0,11.0,81,0.00,,,0.00,meteohub,2013-06-06 15:34:00,
2013-06-06 11:39:00,66.0,59.4,30.19,East,96,9.0,11.0,79,0.00,,,0.00,meteohub,2013-06-06 15:39:00,
2013-06-06 11:44:00,65.5,59.2,30.19,SSE,155,6.0,13.0,80,0.00,,,0.00,meteohub,2013-06-06 15:44:00,
2013-06-06 11:49:00,65.1,59.2,30.19,East,84,9.0,13.0,81,0.00,,,0.00,meteohub,2013-06-06 15:49:00,
2013-06-06 11:54:00,65.1,59.9,30.19,East,82,4.0,13.0,83,0.00,,,0.00,meteohub,2013-06-06 15:54:00,
2013-06-06 11:59:00,65.5,59.2,30.19,ESE,122,9.0,12.0,80,0.00,,,0.00,meteohub,2013-06-06 15:59:00,
2013-06-06 12:04:00,65.5,59.5,30.19,ESE,102,4.0,12.0,81,0.00,,,0.00,meteohub,2013-06-06 16:04:00,
2013-06-06 12:09:00,65.5,59.2,30.19,East,99,6.0,12.0,80,0.00,,,0.00,meteohub,2013-06-06 16:09:00,
2013-06-06 12:14:00,65.3,58.6,30.19,ESE,105,12.0,12.0,79,0.00,,,0.00,meteohub,2013-06-06 16:14:00,
2013-06-06 12:19:00,65.7,59.4,30.19,SE,134,3.0,12.0,80,0.00,,,0.00,meteohub,2013-06-06 16:19:00,
2013-06-06 12:24:00,66.0,59.4,30.19,East,96,8.0,15.0,79,0.00,,,0.00,meteohub,2013-06-06 16:24:00,
2013-06-06 12:29:00,66.4,59.4,30.18,SE,125,3.0,15.0,78,0.00,,,0.00,meteohub,2013-06-06 16:29:00,
2013-06-06 12:34:00,66.4,57.9,30.19,SE,134,8.0,12.0,74,0.00,,,0.00,meteohub,2013-06-06 16:34:00,
2013-06-06 12:39:00,66.0,58.3,30.19,ESE,110,7.0,12.0,76,0.00,,,0.00,meteohub,2013-06-06 16:39:00,
2013-06-06 12:44:00,66.0,57.9,30.19,ESE,115,11.0,13.0,75,0.00,,,0.00,meteohub,2013-06-06 16:44:00,
2013-06-06 12:49:00,65.8,57.4,30.18,SE,131,4.0,13.0,74,0.00,,,0.00,meteohub,2013-06-06 16:49:00,
2013-06-06 12:54:00,66.4,58.6,30.18,SSE,161,11.0,13.0,76,0.00,,,0.00,meteohub,2013-06-06 16:54:00,
2013-06-06 12:59:00,66.0,58.3,30.18,SSE,149,12.0,13.0,76,0.00,,,0.00,meteohub,2013-06-06 16:59:00,
2013-06-06 13:04:00,66.0,58.6,30.19,ESE,108,12.0,13.0,77,0.00,,,0.00,meteohub,2013-06-06 17:04:00,
2013-06-06 13:10:00,65.5,57.0,30.18,ESE,103,7.0,13.0,74,0.00,,,0.00,meteohub,2013-06-06 17:10:00,
2013-06-06 13:15:00,65.5,56.7,30.19,SSE,148,11.0,14.0,73,0.00,,,0.00,meteohub,2013-06-06 17:15:00,
2013-06-06 13:20:00,65.1,55.4,30.18,SE,146,13.0,14.0,71,0.00,,,0.00,meteohub,2013-06-06 17:20:00,
2013-06-06 13:25:00,65.5,57.7,30.18,ESE,121,7.0,14.0,76,0.00,,,0.00,meteohub,2013-06-06 17:25:00,
2013-06-06 13:30:00,65.5,58.1,30.18,SSE,150,6.0,14.0,77,0.00,,,0.00,meteohub,2013-06-06 17:30:00,
2013-06-06 13:35:00,65.1,58.1,30.18,SSE,151,6.0,13.0,78,0.00,,,0.00,meteohub,2013-06-06 17:35:00,
2013-06-06 13:40:00,64.6,57.9,30.17,ESE,108,7.0,12.0,79,0.00,,,0.00,meteohub,2013-06-06 17:40:00,
2013-06-06 13:45:00,64.8,59.2,30.17,SSW,194,3.0,14.0,82,0.00,,,0.00,meteohub,2013-06-06 17:45:00,
2013-06-06 13:50:00,64.8,59.2,30.17,South,176,8.0,14.0,82,0.00,,,0.00,meteohub,2013-06-06 17:50:00,
2013-06-06 13:55:00,64.8,59.2,30.17,SE,146,9.0,14.0,82,0.00,,,0.00,meteohub,2013-06-06 17:55:00,
2013-06-06 14:00:00,64.6,59.0,30.17,ESE,113,9.0,12.0,82,0.00,,,0.00,meteohub,2013-06-06 18:00:00,
2013-06-06 14:05:00,64.8,59.2,30.17,SE,141,8.0,13.0,82,0.00,,,0.00,meteohub,2013-06-06 18:05:00,
2013-06-06 14:10:00,65.1,59.2,30.17,SSE,158,5.0,13.0,81,0.00,,,0.00,meteohub,2013-06-06 18:10:00,
2013-06-06 14:15:00,64.9,59.0,30.17,SE,142,4.0,13.0,81,0.00,,,0.00,meteohub,2013-06-06 18:15:00,
2013-06-06 14:20:00,65.5,59.2,30.17,SE,131,8.0,12.0,80,0.00,,,0.00,meteohub,2013-06-06 18:20:00,
2013-06-06 14:25:00,65.5,59.2,30.17,SE,135,3.0,12.0,80,0.00,,,0.00,meteohub,2013-06-06 18:25:00,
2013-06-06 14:30:00,65.8,58.8,30.17,SE,129,11.0,12.0,78,0.00,,,0.00,meteohub,2013-06-06 18:30:00,
2013-06-06 14:35:00,65.7,59.0,30.16,SSE,167,8.0,13.0,79,0.00,,,0.00,meteohub,2013-06-06 18:35:00,
2013-06-06 14:40:00,65.1,58.8,30.16,SE,124,10.0,13.0,80,0.00,,,0.00,meteohub,2013-06-06 18:40:00,
2013-06-06 14:45:00,65.3,59.4,30.16,East,98,6.0,13.0,81,0.00,,,0.00,meteohub,2013-06-06 18:45:00,
2013-06-06 14:50:00,65.1,58.8,30.16,SSE,161,5.0,13.0,80,0.00,,,0.00,meteohub,2013-06-06 18:50:00,
2013-06-06 14:55:00,65.1,58.5,30.16,SE,142,8.0,14.0,79,0.00,,,0.00,meteohub,2013-06-06 18:55:00,
2013-06-06 15:00:00,65.1,58.8,30.16,ESE,118,5.0,17.0,80,0.00,,,0.00,meteohub,2013-06-06 19:00:00,
2013-06-06 15:05:00,64.9,58.6,30.17,ESE,120,11.0,17.0,80,0.00,,,0.00,meteohub,2013-06-06 19:05:00,
2013-06-06 15:10:00,64.8,58.8,30.16,SSE,162,3.0,14.0,81,0.00,,,0.00,meteohub,2013-06-06 19:10:00,
2013-06-06 15:15:00,64.8,58.1,30.16,ESE,122,10.0,14.0,79,0.00,,,0.00,meteohub,2013-06-06 19:15:00,
2013-06-06 15:20:00,64.6,57.6,30.16,ESE,105,11.0,13.0,78,0.00,,,0.00,meteohub,2013-06-06 19:20:00,
2013-06-06 15:25:00,64.2,57.6,30.15,SE,136,10.0,15.0,79,0.00,,,0.00,meteohub,2013-06-06 19:25:00,
2013-06-06 15:30:00,64.4,56.7,30.15,SSE,167,5.0,15.0,76,0.00,,,0.00,meteohub,2013-06-06 19:30:00,
2013-06-06 15:34:00,64.6,57.2,30.15,SE,136,6.0,15.0,77,0.00,,,0.00,meteohub,2013-06-06 19:34:00,
2013-06-06 15:39:00,64.9,57.2,30.15,East,94,7.0,15.0,76,0.00,,,0.00,meteohub,2013-06-06 19:39:00,
2013-06-06 15:44:00,64.8,57.0,30.15,SSE,166,6.0,14.0,76,0.00,,,0.00,meteohub,2013-06-06 19:44:00,
2013-06-06 15:49:00,64.2,56.5,30.15,SSE,158,7.0,14.0,76,0.00,,,0.00,meteohub,2013-06-06 19:49:00,
2013-06-06 15:54:00,64.2,56.8,30.15,SW,233,5.0,14.0,77,0.00,,,0.00,meteohub,2013-06-06 19:54:00,
2013-06-06 15:59:00,64.6,57.2,30.15,ENE,64,6.0,14.0,77,0.00,,,0.00,meteohub,2013-06-06 19:59:00,
2013-06-06 16:04:00,64.2,57.2,30.15,SSE,157,3.0,15.0,78,0.00,,,0.00,meteohub,2013-06-06 20:04:00,
2013-06-06 16:09:00,64.2,56.5,30.15,SSE,160,11.0,15.0,76,0.00,,,0.00,meteohub,2013-06-06 20:09:00,
2013-06-06 16:14:00,63.9,56.5,30.15,SE,132,9.0,15.0,77,0.00,,,0.00,meteohub,2013-06-06 20:14:00,
2013-06-06 16:19:00,63.7,56.7,30.15,ESE,114,4.0,15.0,78,0.00,,,0.00,meteohub,2013-06-06 20:19:00,
2013-06-06 16:24:00,63.7,56.3,30.15,ESE,106,10.0,15.0,77,0.00,,,0.00,meteohub,2013-06-06 20:24:00,
2013-06-06 16:29:00,63.9,57.2,30.15,SSE,164,5.0,15.0,79,0.00,,,0.00,meteohub,2013-06-06 20:29:00,
2013-06-06 16:34:00,63.9,56.8,30.15,SE,128,5.0,12.0,78,0.00,,,0.00,meteohub,2013-06-06 20:34:00,
2013-06-06 16:39:00,63.9,56.8,30.14,ESE,120,4.0,13.0,78,0.00,,,0.00,meteohub,2013-06-06 20:39:00,
2013-06-06 16:44:00,63.9,56.5,30.14,SSE,167,3.0,13.0,77,0.00,,,0.00,meteohub,2013-06-06 20:44:00,
2013-06-06 16:49:00,64.0,57.0,30.14,ESE,103,10.0,13.0,78,0.00,,,0.00,meteohub,2013-06-06 20:49:00,
2013-06-06 16:54:00,64.0,55.6,30.15,SE,144,6.0,11.0,74,0.00,,,0.00,meteohub,2013-06-06 20:54:00,
2013-06-06 16:59:00,64.2,55.4,30.14,SE,134,5.0,11.0,73,0.00,,,0.00,meteohub,2013-06-06 20:59:00,
2013-06-06 17:04:00,64.0,54.9,30.14,ESE,117,9.0,11.0,72,0.00,,,0.00,meteohub,2013-06-06 21:04:00,
2013-06-06 17:09:00,63.9,55.0,30.14,ESE,122,6.0,13.0,73,0.00,,,0.00,meteohub,2013-06-06 21:09:00,
2013-06-06 17:14:00,63.7,54.9,30.14,SSE,150,7.0,13.0,73,0.00,,,0.00,meteohub,2013-06-06 21:14:00,
2013-06-06 17:19:00,63.5,54.7,30.14,ESE,117,5.0,13.0,73,0.00,,,0.00,meteohub,2013-06-06 21:19:00,
2013-06-06 17:24:00,63.1,54.3,30.13,East,88,9.0,13.0,73,0.00,,,0.00,meteohub,2013-06-06 21:24:00,
2013-06-06 17:29:00,63.0,54.9,30.13,ESE,120,5.0,11.0,75,0.00,,,0.00,meteohub,2013-06-06 21:29:00,
2013-06-06 17:34:00,63.0,55.2,30.13,ESE,122,3.0,11.0,76,0.00,,,0.00,meteohub,2013-06-06 21:34:00,
2013-06-06 17:39:00,62.8,55.0,30.13,ESE,118,5.0,11.0,76,0.00,,,0.00,meteohub,2013-06-06 21:39:00,
2013-06-06 17:44:00,62.8,55.4,30.13,ESE,103,3.0,11.0,77,0.00,,,0.00,meteohub,2013-06-06 21:44:00,
2013-06-06 17:49:00,62.6,55.9,30.13,ESE,120,6.0,9.0,79,0.00,,,0.00,meteohub,2013-06-06 21:49:00,
2013-06-06 17:54:00,62.4,56.5,30.13,East,90,5.0,9.0,81,0.00,,,0.00,meteohub,2013-06-06 21:54:00,
2013-06-06 17:59:00,62.2,56.3,30.13,ESE,115,5.0,9.0,81,0.00,,,0.00,meteohub,2013-06-06 21:59:00,
2013-06-06 18:04:00,62.1,56.5,30.12,ESE,102,9.0,9.0,82,0.00,,,0.00,meteohub,2013-06-06 22:04:00,
2013-06-06 18:09:00,61.9,56.3,30.13,East,94,4.0,12.0,82,0.00,,,0.00,meteohub,2013-06-06 22:09:00,
2013-06-06 18:14:00,62.1,56.8,30.13,ESE,113,3.0,12.0,83,0.00,,,0.00,meteohub,2013-06-06 22:14:00,
2013-06-06 18:19:00,62.1,57.2,30.13,SE,138,3.0,11.0,84,0.00,,,0.00,meteohub,2013-06-06 22:19:00,
2013-06-06 18:24:00,62.1,57.2,30.14,East,93,4.0,11.0,84,0.00,,,0.00,meteohub,2013-06-06 22:24:00,
2013-06-06 18:29:00,61.9,57.4,30.14,SE,136,3.0,9.0,85,0.00,,,0.00,meteohub,2013-06-06 22:29:00,
2013-06-06 18:34:00,61.7,57.4,30.14,SE,131,3.0,9.0,86,0.00,,,0.00,meteohub,2013-06-06 22:34:00,
2013-06-06 18:39:00,61.7,57.4,30.14,ESE,108,1.0,9.0,86,0.00,,,0.00,meteohub,2013-06-06 22:39:00,
2013-06-06 18:44:00,61.7,57.4,30.14,East,87,7.0,9.0,86,0.00,,,0.00,meteohub,2013-06-06 22:44:00,
2013-06-06 18:49:00,61.3,57.4,30.14,East,94,5.0,9.0,87,0.00,,,0.00,meteohub,2013-06-06 22:49:00,
2013-06-06 18:54:00,61.3,57.4,30.14,ESE,108,5.0,8.0,87,0.00,,,0.00,meteohub,2013-06-06 22:54:00,
2013-06-06 18:59:00,61.2,57.6,30.14,East,94,4.0,8.0,88,0.00,,,0.00,meteohub,2013-06-06 22:59:00,
2013-06-06 19:04:00,61.2,57.6,30.14,East,94,5.0,8.0,88,0.00,,,0.00,meteohub,2013-06-06 23:04:00,
2013-06-06 19:09:00,61.0,57.4,30.14,ESE,106,7.0,8.0,88,0.00,,,0.00,meteohub,2013-06-06 23:09:00,
2013-06-06 19:14:00,61.0,57.4,30.14,East,101,3.0,9.0,88,0.00,,,0.00,meteohub,2013-06-06 23:14:00,
2013-06-06 19:19:00,60.8,57.6,30.14,ESE,113,7.0,9.0,89,0.00,,,0.00,meteohub,2013-06-06 23:19:00,
2013-06-06 19:24:00,60.8,57.6,30.14,ESE,115,3.0,9.0,89,0.00,,,0.00,meteohub,2013-06-06 23:24:00,
2013-06-06 19:29:00,60.8,57.6,30.14,ESE,108,5.0,9.0,89,0.00,,,0.00,meteohub,2013-06-06 23:29:00,
2013-06-06 19:34:00,60.6,57.4,30.14,East,81,3.0,9.0,89,0.00,,,0.00,meteohub,2013-06-06 23:34:00,
2013-06-06 19:39:00,60.6,57.4,30.14,ESE,105,6.0,8.0,89,0.00,,,0.00,meteohub,2013-06-06 23:39:00,
2013-06-06 19:44:00,60.6,57.4,30.14,ESE,117,2.0,8.0,89,0.00,,,0.00,meteohub,2013-06-06 23:44:00,
2013-06-06 19:49:00,60.6,57.4,30.14,East,101,6.0,8.0,89,0.00,,,0.00,meteohub,2013-06-06 23:49:00,
2013-06-06 19:54:00,60.6,57.4,30.14,East,86,1.0,8.0,89,0.00,,,0.00,meteohub,2013-06-06 23:54:00,
2013-06-06 20:00:00,60.6,57.4,30.14,East,93,2.0,6.0,89,0.00,,,0.00,meteohub,2013-06-07 00:00:00,
2013-06-06 20:05:00,60.6,57.4,30.14,SE,130,1.0,6.0,89,0.00,,,0.00,meteohub,2013-06-07 00:05:00,
2013-06-06 20:10:00,60.6,57.4,30.14,East,82,2.0,6.0,89,0.00,,,0.00,meteohub,2013-06-07 00:10:00,
2013-06-06 20:15:00,60.6,57.4,30.14,ESE,105,2.0,4.0,89,0.00,,,0.00,meteohub,2013-06-07 00:15:00,
2013-06-06 20:20:00,60.6,57.4,30.14,ESE,105,6.0,7.0,89,0.00,,,0.00,meteohub,2013-06-07 00:20:00,
2013-06-06 20:25:00,60.6,57.4,30.14,NE,44,3.0,7.0,89,0.00,,,0.00,meteohub,2013-06-07 00:25:00,
2013-06-06 20:30:00,60.6,57.4,30.13,East,80,2.0,7.0,89,0.00,,,0.00,meteohub,2013-06-07 00:30:00,
2013-06-06 20:35:00,60.6,57.4,30.14,ENE,77,4.0,6.0,89,0.00,,,0.00,meteohub,2013-06-07 00:35:00,
2013-06-06 20:40:00,60.6,57.4,30.14,East,92,0.0,6.0,89,0.00,,,0.00,meteohub,2013-06-07 00:40:00,
2013-06-06 20:45:00,60.4,57.2,30.14,East,86,3.0,6.0,89,0.00,,,0.00,meteohub,2013-06-07 00:45:00,
2013-06-06 20:50:00,60.4,57.2,30.14,ENE,71,6.0,6.0,89,0.00,,,0.00,meteohub,2013-06-07 00:50:00,
2013-06-06 20:55:00,60.4,57.2,30.14,East,79,3.0,5.0,89,0.00,,,0.00,meteohub,2013-06-07 00:55:00,
2013-06-06 21:00:00,60.4,56.8,30.14,ESE,108,4.0,6.0,88,0.00,,,0.00,meteohub,2013-06-07 01:00:00,
2013-06-06 21:05:00,60.6,57.0,30.13,East,93,4.0,6.0,88,0.00,,,0.00,meteohub,2013-06-07 01:05:00,
2013-06-06 21:10:00,60.4,56.8,30.13,East,94,4.0,7.0,88,0.00,,,0.00,meteohub,2013-06-07 01:10:00,
2013-06-06 21:15:00,60.4,56.8,30.13,East,94,5.0,7.0,88,0.00,,,0.00,meteohub,2013-06-07 01:15:00,
2013-06-06 21:20:00,60.4,56.8,30.13,ESE,108,8.0,8.0,88,0.00,,,0.00,meteohub,2013-06-07 01:20:00,
2013-06-06 21:25:00,60.4,56.8,30.13,East,92,6.0,9.0,88,0.00,,,0.00,meteohub,2013-06-07 01:25:00,
2013-06-06 21:30:00,60.3,56.7,30.12,ESE,103,8.0,9.0,88,0.00,,,0.00,meteohub,2013-06-07 01:30:00,
2013-06-06 21:35:00,60.3,56.7,30.12,ESE,102,7.0,9.0,88,0.00,,,0.00,meteohub,2013-06-07 01:35:00,
2013-06-06 21:40:00,60.3,56.7,30.13,ESE,107,7.0,9.0,88,0.00,,,0.00,meteohub,2013-06-07 01:40:00,
2013-06-06 21:45:00,60.3,56.7,30.12,ESE,104,4.0,9.0,88,0.00,,,0.00,meteohub,2013-06-07 01:45:00,
2013-06-06 21:50:00,60.1,56.5,30.12,ENE,78,3.0,10.0,88,0.00,,,0.00,meteohub,2013-06-07 01:50:00,
2013-06-06 21:55:00,60.1,56.1,30.12,East,101,5.0,10.0,87,0.00,,,0.00,meteohub,2013-06-07 01:55:00,
2013-06-06 22:00:00,60.1,56.1,30.12,East,87,4.0,9.0,87,0.00,,,0.00,meteohub,2013-06-07 02:00:00,
2013-06-06 22:05:00,60.1,56.1,30.13,East,96,4.0,11.0,87,0.00,,,0.00,meteohub,2013-06-07 02:05:00,
2013-06-06 22:10:00,60.1,56.5,30.12,SE,125,4.0,11.0,88,0.00,,,0.00,meteohub,2013-06-07 02:10:00,
2013-06-06 22:15:00,60.1,56.5,30.12,ESE,103,6.0,11.0,88,0.00,,,0.00,meteohub,2013-06-07 02:15:00,
2013-06-06 22:20:00,59.9,56.3,30.11,East,79,2.0,10.0,88,0.00,,,0.00,meteohub,2013-06-07 02:20:00,
2013-06-06 22:25:00,59.9,56.7,30.12,ESE,118,7.0,10.0,89,0.00,,,0.00,meteohub,2013-06-07 02:25:00,
2013-06-06 22:30:00,59.7,56.5,30.12,East,89,4.0,8.0,89,0.00,,,0.00,meteohub,2013-06-07 02:30:00,
2013-06-06 22:35:00,59.7,56.8,30.12,East,79,2.0,8.0,90,0.00,,,0.00,meteohub,2013-06-07 02:35:00,
2013-06-06 22:40:00,59.7,56.8,30.12,ENE,64,5.0,8.0,90,0.00,,,0.00,meteohub,2013-06-07 02:40:00,
2013-06-06 22:45:00,59.7,56.8,30.11,ESE,108,4.0,8.0,90,0.00,,,0.00,meteohub,2013-06-07 02:45:00,
2013-06-06 22:50:00,59.5,56.8,30.12,SE,124,4.0,8.0,91,0.00,,,0.00,meteohub,2013-06-07 02:50:00,
2013-06-06 22:55:00,59.5,56.8,30.12,East,81,3.0,8.0,91,0.00,,,0.00,meteohub,2013-06-07 02:55:00,
2013-06-06 23:00:00,59.5,56.8,30.11,East,90,3.0,7.0,91,0.00,,,0.00,meteohub,2013-06-07 03:00:00,
2013-06-06 23:05:00,59.5,56.8,30.11,East,82,2.0,7.0,91,0.00,,,0.00,meteohub,2013-06-07 03:05:00,
2013-06-06 23:10:00,59.5,56.8,30.11,SE,125,3.0,7.0,91,0.00,,,0.00,meteohub,2013-06-07 03:10:00,
2013-06-06 23:15:00,59.5,56.7,30.10,East,81,4.0,7.0,90,0.00,,,0.00,meteohub,2013-06-07 03:15:00,
2013-06-06 23:20:00,59.5,56.7,30.10,East,98,4.0,7.0,90,0.00,,,0.00,meteohub,2013-06-07 03:20:00,
2013-06-06 23:25:00,59.7,56.8,30.10,East,91,4.0,9.0,90,0.00,,,0.00,meteohub,2013-06-07 03:25:00,
2013-06-06 23:30:00,59.7,56.8,30.10,East,91,3.0,9.0,90,0.00,,,0.00,meteohub,2013-06-07 03:30:00,
2013-06-06 23:36:00,59.7,56.8,30.11,ESE,105,1.0,9.0,90,0.00,,,0.00,meteohub,2013-06-07 03:36:00,
2013-06-06 23:41:00,59.7,56.8,30.11,ESE,119,1.0,9.0,90,0.00,,,0.00,meteohub,2013-06-07 03:41:00,
2013-06-06 23:46:00,59.9,57.0,30.11,East,89,3.0,9.0,90,0.00,,,0.00,meteohub,2013-06-07 03:46:00,
2013-06-06 23:51:00,59.7,56.8,30.10,East,91,6.0,6.0,90,0.00,,,0.00,meteohub,2013-06-07 03:51:00,
2013-06-06 23:56:00,59.7,56.8,30.10,East,86,4.0,8.0,90,0.00,,,0.00,meteohub,2013-06-07 03:56:00,